This demonstration page uses our WeatherBlox Daily Observations layout. Learn more.

Left ArrowRight Arrow

41.55636, -103.73856

Hourly Observations for July 9, 2020

Temp ( °F °C ) Dew Point ( °F °C ) Humidity (%) Winds ( mph kmh ) Pressure ( in mb ) Visibility ( mi km ) Precip ( " mm )
6:58 pm 18:58 Clear 83 28.4 31 -0.8 15 15 SSE 24 39 29.72 1007 10 16 0.00 0.00
7:58 pm 19:58 Clear 78 25.8 35 1.5 20 20 S 16 26 29.70 1006 10 16 0.00 0.00
8:58 pm 20:58 Clear 73 22.6 35 1.7 25 25 SSW 12 19 29.70 1006 10 16 0.00 0.00
9:58 pm 21:58 Clear 69 20.4 37 2.6 31 31 SW 14 22 29.74 1007 10 16 0.00 0.00
10:58 pm 22:58 Clear 69 20.6 35 1.9 29 29 W 6 9 29.76 1008 10 16 0.00 0.00
11:58 pm 23:58 Clear 62 16.4 36 2.2 39 39 N 3 6 29.79 1009 10 16 0.00 0.00
12:58 am 00:58 Clear 70 21.2 34 0.9 26 26 SSE 8 13 29.78 1009 10 16 0.00 0.00
1:58 am 01:58 Clear 61 15.9 36 2.1 40 40 E 8 13 29.82 1010 10 16 0.00 0.00
2:58 am 02:58 Clear 59 14.9 37 2.5 43 43 WSW 7 11 29.85 1011 10 16 0.00 0.00
3:58 am 03:58 Clear 55 12.9 36 2.4 49 49 SW 6 9 29.87 1011 10 16 0.00 0.00
4:58 am 04:58 Clear 53 11.7 36 2 52 52 Calm 29.89 1012 10 16 0.00 0.00
5:58 am 05:58 Sunny 55 12.5 44 6.5 67 67 SW 3 6 29.89 1012 10 16 0.00 0.00
6:58 am 06:58 Sunny 57 13.7 48 9 73 73 N 5 7 29.91 1013 10 16 0.00 0.00
7:58 am 07:58 Sunny 61 16.1 52 11.2 73 73 NNW 9 15 29.93 1014 10 16 0.00 0.00
8:58 am 08:58 Sunny 66 18.7 46 8 50 50 NE 3 6 29.94 1014 10 16 0.00 0.00
9:56 am 09:56 Sunny 71 21.4 46 7.5 41 41 S 6 9 29.94 1014 10 16 0.00 0.00
10:56 am 10:56 Sunny 76 24.6 44 6.7 32 32 S 8 13 29.91 1013 10 16 0.00 0.00
11:56 am 11:56 Sunny 79 26.2 45 7.3 30 30 WSW 5 7 29.93 1014 10 16 0.00 0.00
12:56 pm 12:56 Sunny 83 28.5 43 6.1 24 24 SE 6 9 29.90 1012 10 16 0.00 0.00
1:56 pm 13:56 Sunny 85 29.7 41 5.2 21 21 SE 7 11 29.90 1013 10 16 0.00 0.00
2:56 pm 14:56 Sunny 88 31.1 41 5.1 19 19 WNW 5 7 29.88 1012 10 16 0.00 0.00
3:58 pm 15:58 Sunny 87 30.3 48 9 27 27 SE 9 15 29.88 1012 10 16 0.00 0.00
4:58 pm 16:58 Partly Cloudy 85 29.2 49 9.7 30 30 W 5 7 29.91 1013 10 16 0.00 0.00
5:58 pm 17:58 Partly Cloudy 80 26.4 45 7.1 29 29 SSE 10 17 29.89 1012 10 16 0.02 0.51

Powered by AerisWeather